Regional Weather Roundup
Issued by NWS New Orleans/Baton Rouge, LA

Home | Current Version | Previous Version | Text Only | Print | Product List | Glossary Off
Versions: 1 2 3 4 5 6 7 8 9 10 11 12 13 14 15 16 17 18 19 20 21 22 23 24 25 26 27 28 29 30 31 32 33 34 35 36 37 38 39 40 41 42 43 44 45 46 47 48 49 50

226
ASUS44 KLIX 240505
RWRLIX
NEW ORLEANS REGIONAL WEATHER ROUNDUP
NATIONAL WEATHER SERVICE NEW ORLEANS LA
1200 AM CDT FRI OCT 24 2014

NOTE: "FAIR" INDICATES FEW OR NO CLOUDS BELOW 12,000 FEET WITH NO
      SIGNIFICANT WEATHER AND/OR OBSTRUCTIONS TO VISIBILITY.
      SKY/WX - SKY CONDITION AND SIGNIFICANT WEATHER.
      TMP - AIR TEMPERATURE.     DP    - DEWPOINT TEMPERATURE.
      RH  - RELATIVE HUMIDITY.   PRES  - PRESSURE.
      HI  - HEAT INDEX.          WCI   - WIND CHILL INDEX.

*  THESE STATIONS ARE NOT NWS OR FAA STATIONS AND ARE NOT UNDER
   NWS QUALITY CONTROL.

LAZ038-040-048-061>063-065>067-069-240600-
SOUTHEAST LOUISIANA

CITY           SKY/WX    TMP DP  RH WIND       PRES   REMARKS
N.O. AUDUBON     N/A     62  56  82 MISG        N/A
N.O. INTL ARPT PTCLDY    66  49  54 NE9       30.07F
N.O. LAKEFRONT PTCLDY    69  50  50 NE14      30.08S
N.O. DOWNTOWN*   N/A     66  48  52 CALM      30.08S
SLIDELL        MOCLDY    57  52  83 CALM      30.08S
BATON ROUGE    CLEAR     54  50  86 CALM      30.09F
BOOTHVILLE     CLOUDY    70  53  54 NE5       30.06F
BELLE CHASSE   PTCLDY    55  51  86 CALM      30.07S
BOGALUSA*        N/A     56  49  78 CALM      30.10F
NEW ROADS*       N/A     51  50  95 NW3       30.10S
GONZALES*        N/A     57  54  89 N3        30.09S
HAMMOND*       PTCLDY    55  48  76 CALM      30.10S
HOUMA*         CLEAR     54  51  91 CALM      30.08S
PORT FOURCHON* CLEAR     68  57  68 N6        30.09F

$$

MSZ070-080>082-240600-
SOUTHERN MISSISSIPPI

CITY           SKY/WX    TMP DP  RH WIND       PRES   REMARKS
MCCOMB         CLEAR     55  49  80 N3        30.10F
GULFPORT       MOCLDY    60  47  61 N3        30.07S
BILOXI         MOCLDY    61  49  65 NE6       30.07S
PASCAGOULA     CLOUDY    56  50  80 CALM      30.07S

$$

COASTAL OBSERVATIONS
LAKE AND NEARSHORE STATIONS

STATION/POSITION TIME  TEMP    WIND        PRES    WAVE
                       AIR SEA DIR/SP/G            HT/PER
                 (UTC) (F)     (DEG/KT/KT) (MB)    (FT/S)
PASCAGOULA       0500   62     350/  5/  7 1017.5
WAVELAND YACHT   0500   63      30/  9/ 12 1017.5
GRAND ISLE       0500   69 73   60/  5/  7 1018.4
SOUTHWEST PASS   0500   71 81              1017.8
NEW CANAL        0500   69 71   40/ 13/ 15 1018.6
SHELL BEACH      0500   68 68  320/  4/  5 1018.0

OFFSHORE STATIONS

STATION/POSITION TIME  TEMP    WIND        PRES    WAVE
                       AIR SEA DIR/SP/G            HT/PER
                 (UTC) (F)     (DEG/KT/KT) (MB)    (FT/S)
64 S DAUPHIN ISL 0438   72 78   60/ 12/ 14 1017.6    3/ 6

$$




USA.gov is the U.S. government's official web portal to all federal, state and local government web resources and services.